[[{"header":{"parameterUnit":"m.s-1","parameterCategory":1,"la1":30.2991,"la2":30.254,"lo1":-89.0895,"lo2":-89.0444,"dy":0.0017,"dx":0.0017,"nx":28,"ny":28,"refTime":"2025-04-24T21:00:00:Z","depth":0,"parameterNumber":2,"parameterNumberName":"U-component_of_WINDS"},"data":[0,0,0,0,0,0,0,0,0,0,0,0,0,0,0,0,0,0,0,0,0,0,0,0,0,0,0,0,0,0,0,0,0,0,0,0,0,0,0,0,0,0,0,0,0,0,0,0,0,0,0,0,0,0,0,0,0,0,-1.1729,-1.1729,0,-1.1659,-1.1658,-1.1657,-1.1593,-1.1593,-1.1592,-1.1591,-1.1518,-1.1516,-1.1515,0,0,0,0,0,0,0,0,0,0,0,0,0,-1.1809,-1.1808,-1.173,-1.1729,-1.1728,-1.1659,-1.1658,-1.1657,-1.1594,-1.1593,-1.1592,-1.1591,-1.1518,-1.1517,-1.1515,0,0,0,0,0,0,0,0,0,0,0,0,0,-1.176,-1.1807,-1.173,-1.1688,-1.1683,-1.1659,-1.1658,-1.1657,-1.1594,-1.1593,-1.1591,-1.159,-1.1519,-1.1517,-1.1515,-1.1526,0,0,-1.1509,-1.1508,0,0,0,0,0,0,0,0,-1.1763,-1.1757,-1.1695,-1.1691,-1.1686,-1.1634,-1.1659,-1.1613,-1.1594,-1.1628,-1.1591,-1.159,-1.1557,-1.1552,-1.1541,-1.1522,-1.1519,-1.1509,-1.1508,-1.1507,-1.1506,0,0,0,0,0,0,0,-1.1766,-1.176,-1.1701,-1.1694,-1.1688,-1.1672,-1.1664,-1.165,-1.16,-1.1625,-1.162,-1.1613,-1.1554,-1.1543,-1.1539,-1.1518,-1.1509,-1.1507,-1.1506,-1.1505,-1.1505,-1.1506,0,0,0,0,0,0,-1.1776,-1.1763,-1.1704,-1.1699,-1.1722,-1.1672,-1.1663,-1.1652,-1.16,-1.1591,-1.1614,-1.161,-1.1547,-1.1541,-1.1536,-1.1546,-1.1507,-1.1505,-1.1504,-1.1504,-1.1506,-1.1507,0,0,0,0,0,0,-1.1778,-1.1771,-1.1707,-1.173,-1.172,-1.1672,-1.166,-1.1651,-1.1639,-1.1591,-1.1582,-1.1611,-1.1546,-1.1539,-1.1529,-1.1542,-1.1504,-1.1503,-1.1503,-1.1505,-1.1506,-1.1565,0,0,0,0,0,0,-1.1781,-1.1772,-1.1776,-1.173,-1.1719,-1.1701,-1.1661,-1.165,-1.1637,-1.1631,-1.1587,-1.1578,-1.1544,-1.1532,-1.1527,-1.1539,-1.1501,-1.1501,-1.1504,-1.1506,-1.1562,-1.1569,-1.1574,0,0,0,0,0,-1.1784,-1.1795,-1.1777,-1.177,-1.1723,-1.1702,-1.1696,-1.1657,-1.1638,-1.1641,-1.161,-1.158,-1.1542,-1.1532,-1.1526,-1.1537,-1.15,-1.1503,-1.1505,-1.1559,-1.1567,-1.1574,0,0,0,0,0,0,-1.1843,-1.1789,-1.1767,-1.1765,-1.1739,-1.1691,-1.1694,-1.1667,-1.1645,-1.1641,-1.1593,-1.1584,-1.1579,-1.1557,-1.1547,-1.1545,-1.1517,-1.1518,-1.156,-1.1567,-1.1573,-1.1579,-1.15,0,0,0,0,0,-1.1857,-1.1844,-1.1797,-1.1799,-1.1787,-1.1743,-1.1732,-1.1705,-1.1676,-1.1664,-1.1632,-1.1605,-1.1587,-1.1576,-1.1556,-1.1559,-1.1548,-1.1563,-1.157,-1.1575,-1.1577,-1.1576,-1.1582,-1.1515,-1.1515,-1.1515,0,0,-1.1883,-1.1852,-1.1846,-1.181,-1.1787,-1.1775,-1.1734,-1.1723,-1.1714,-1.1662,-1.1651,-1.1627,-1.1593,-1.159,-1.1587,-1.1571,-1.1593,-1.1578,-1.1583,-1.1582,-1.1579,-1.1586,-1.1592,-1.1517,-1.1517,-1.1516,0,0,-1.1925,-1.19,-1.1899,-1.1877,-1.1842,-1.1813,-1.1813,-1.177,-1.1752,-1.1741,-1.1702,-1.169,-1.166,-1.1637,-1.1622,-1.1657,-1.1628,-1.1652,-1.1685,-1.1685,-1.169,-1.1695,-1.1707,-1.1712,-1.1654,-1.1654,-1.1654,0,-1.1962,-1.1943,-1.1902,-1.1894,-1.1879,-1.1833,-1.1832,-1.1812,-1.1772,-1.1763,-1.1747,-1.1708,-1.1682,-1.1672,-1.1681,-1.167,-1.1669,-1.1656,-1.1693,-1.1697,-1.17,-1.1711,-1.1716,-1.1657,-1.1657,-1.1656,-1.1656,0,-1.199,-1.1978,-1.1981,-1.1945,-1.1931,-1.1926,-1.1884,-1.1875,-1.1849,-1.1822,-1.181,-1.1778,-1.1751,-1.1747,-1.1721,-1.1734,-1.1725,-1.1702,-1.1672,-1.1711,-1.172,-1.1724,-1.1662,-1.166,-1.166,-1.1659,0,0,-1.2067,-1.2009,-1.2011,-1.1995,-1.1953,-1.1942,-1.1936,-1.191,-1.1903,-1.1878,-1.187,-1.1847,-1.1824,-1.1807,-1.1779,-1.1779,-1.1808,-1.1755,-1.1753,-1.1766,-1.182,-1.1838,-1.1844,-1.1789,-1.179,-1.179,-1.1823,0,-1.2102,-1.2088,-1.2051,-1.2048,-1.2036,-1.1992,-1.1986,-1.196,-1.1935,-1.1921,-1.1892,-1.1876,-1.1848,-1.1837,-1.1836,-1.1805,-1.1819,-1.1802,-1.1782,-1.1782,-1.1791,-1.1849,-1.1867,-1.19,-1.1826,-1.1827,-1.1828,0,-1.2141,-1.2119,-1.2115,-1.2075,-1.2068,-1.2063,-1.2037,-1.2024,-1.1994,-1.1975,-1.1957,-1.1926,-1.1916,-1.189,-1.1876,-1.1865,-1.1855,-1.1839,-1.1839,-1.1835,-1.1807,-1.1846,-1.1909,-1.1914,-1.1833,-1.1833,-1.1832,0,-1.2198,-1.2167,-1.216,-1.2147,-1.21,-1.2098,-1.2078,-1.2047,-1.2034,-1.2011,-1.2002,-1.1979,-1.1966,-1.1948,-1.1911,-1.1895,-1.1901,-1.1872,-1.1885,-1.1886,-1.1888,-1.1888,-1.195,-1.1882,-1.1882,-1.1882,-1.1882,0,-1.224,-1.2239,-1.2185,-1.2181,-1.2179,-1.2137,-1.2136,-1.2112,-1.2084,-1.2075,-1.2035,-1.2027,-1.1979,-1.1966,-1.1937,-1.1929,-1.1924,-1.1908,-1.1901,-1.1912,-1.1914,-1.1904,-1.19,-1.1883,-1.1883,-1.1883,-1.1883,0,-1.2302,-1.2266,-1.2256,-1.2213,-1.2202,-1.2202,-1.2165,-1.2159,-1.2132,-1.212,-1.2115,-1.2072,-1.2053,-1.2015,-1.1986,-1.1967,-1.1966,-1.1953,-1.1977,-1.1972,-1.1987,-1.1987,-1.2044,-1.205,-1.198,-1.198,-1.1981,0,-1.2332,-1.233,-1.2287,-1.2278,-1.226,-1.2246,-1.2233,-1.2192,-1.218,-1.2145,-1.2144,-1.2123,-1.2103,-1.2076,-1.2042,-1.202,-1.2005,-1.2027,-1.2002,-1.2013,-1.2005,-1.2006,-1.2005,-1.2033,-1.2034,-1.2035,-1.2035,0,-1.2388,-1.237,-1.2353,-1.233,-1.2316,-1.2295,-1.2273,-1.2267,-1.2221,-1.221,-1.2191,-1.2176,-1.2147,-1.2126,-1.2099,-1.2078,-1.2049,-1.2044,-1.2046,-1.2056,-1.207,-1.2063,-1.1992,-1.2042,-1.2042,-1.2041,-1.2041,-1.204,-1.2434,-1.2431,-1.24,-1.2382,-1.2361,-1.2341,-1.2334,-1.2306,-1.229,-1.2263,-1.224,-1.2223,-1.2193,-1.2154,-1.2135,-1.2121,-1.2107,-1.2109,-1.211,-1.2111,-1.2116,-1.2073,-1.2116,-1.2116,-1.2116,-1.2115,-1.2115,0,-1.2488,-1.2466,-1.245,-1.242,-1.2407,-1.2381,-1.2355,-1.2345,-1.2331,-1.2306,-1.2288,-1.2266,-1.2246,-1.2211,-1.2188,-1.2184,-1.217,-1.2179,-1.2179,-1.2174,-1.213,-1.2131,-1.2191,-1.2191,-1.2191,-1.2191,-1.2191,-1.2191,-1.2514,-1.2507,-1.2486,-1.2468,-1.2446,-1.243,-1.2417,-1.2398,-1.2378,-1.2356,-1.2339,-1.2317,-1.2287,-1.2262,-1.2242,-1.2232,-1.2226,-1.2239,-1.2225,-1.2184,-1.2177,-1.2171,-1.2171,-1.2238,-1.2238,-1.227,-1.227,-1.2271]},{"header":{"parameterUnit":"m.s-1","parameterCategory":1,"la1":30.2991,"la2":30.254,"lo1":-89.0895,"lo2":-89.0444,"dy":0.0017,"dx":0.0017,"nx":28,"ny":28,"refTime":"2025-04-24T21:00:00:Z","depth":0,"parameterNumber":3,"parameterNumberName":"V-component_of_WINDS"},"data":[0,0,0,0,0,0,0,0,0,0,0,0,0,0,0,0,0,0,0,0,0,0,0,0,0,0,0,0,0,0,0,0,0,0,0,0,0,0,0,0,0,0,0,0,0,0,0,0,0,0,0,0,0,0,0,0,0,0,1.9672,1.9671,0,1.9618,1.9617,1.9617,1.9578,1.9577,1.9577,1.9577,1.9518,1.9517,1.9515,0,0,0,0,0,0,0,0,0,0,0,0,0,1.9739,1.9738,1.9672,1.9671,1.9671,1.9618,1.9617,1.9616,1.9578,1.9577,1.9577,1.9577,1.9518,1.9517,1.9515,0,0,0,0,0,0,0,0,0,0,0,0,0,1.97,1.9738,1.9672,1.9645,1.9642,1.9618,1.9617,1.9616,1.9578,1.9577,1.9577,1.9576,1.9519,1.9517,1.9515,1.9513,0,0,1.9509,1.9508,0,0,0,0,0,0,0,0,1.9702,1.9697,1.965,1.9647,1.9643,1.9604,1.9619,1.9581,1.9578,1.9602,1.9577,1.9576,1.9547,1.9542,1.9533,1.951,1.9507,1.9509,1.9508,1.9507,1.9507,0,0,0,0,0,0,0,1.9705,1.9699,1.965,1.9649,1.9645,1.9635,1.9629,1.9612,1.9577,1.96,1.9597,1.9591,1.9545,1.9535,1.9532,1.9506,1.9509,1.9507,1.9506,1.9505,1.9479,1.948,0,0,0,0,0,0,1.9712,1.9702,1.9652,1.9649,1.9672,1.9634,1.9627,1.9617,1.9578,1.9571,1.9592,1.959,1.9539,1.9534,1.9529,1.9525,1.9507,1.9505,1.9504,1.9479,1.9479,1.948,0,0,0,0,0,0,1.9714,1.9708,1.9654,1.9675,1.9667,1.9633,1.9622,1.9616,1.9607,1.9572,1.9565,1.9588,1.9538,1.9532,1.9518,1.9522,1.9504,1.9503,1.9478,1.9479,1.948,1.9515,0,0,0,0,0,0,1.9716,1.9709,1.9708,1.9675,1.9666,1.9644,1.9623,1.9616,1.9604,1.9601,1.9567,1.956,1.9537,1.9521,1.9516,1.9519,1.9501,1.9478,1.9479,1.9479,1.9513,1.9517,1.952,0,0,0,0,0,1.9718,1.9719,1.9708,1.9703,1.9665,1.9645,1.9639,1.9614,1.9604,1.9603,1.9581,1.9561,1.9522,1.9519,1.9514,1.9517,1.9477,1.9478,1.9479,1.9512,1.9516,1.952,0,0,0,0,0,0,1.9753,1.9714,1.9702,1.9692,1.9672,1.9638,1.9636,1.9619,1.96,1.9598,1.9566,1.9558,1.9547,1.953,1.9528,1.9513,1.9497,1.9497,1.9524,1.9528,1.9531,1.9536,1.95,0,0,0,0,0,1.9759,1.9747,1.9714,1.9709,1.9699,1.967,1.966,1.9642,1.9619,1.961,1.9587,1.9565,1.9547,1.9537,1.9519,1.9511,1.9503,1.951,1.9513,1.9516,1.9516,1.9511,1.9514,1.9483,1.9483,1.9483,0,0,1.9772,1.975,1.9744,1.9715,1.9697,1.9685,1.9662,1.965,1.964,1.9608,1.9593,1.9575,1.9549,1.9538,1.9532,1.9523,1.9523,1.9517,1.952,1.9518,1.9513,1.9516,1.9518,1.9484,1.9484,1.9484,0,0,1.979,1.9772,1.9766,1.975,1.9724,1.9704,1.9703,1.9671,1.9659,1.9644,1.962,1.9607,1.9578,1.956,1.9547,1.956,1.9542,1.9555,1.9572,1.9568,1.957,1.9572,1.9577,1.9579,1.9555,1.9555,1.9555,0,1.981,1.9791,1.9765,1.9755,1.9743,1.9714,1.9708,1.9692,1.9661,1.9654,1.9645,1.9609,1.9588,1.9573,1.9577,1.9567,1.9564,1.9559,1.9572,1.9574,1.9575,1.958,1.9582,1.9557,1.9557,1.9557,1.9557,0,1.9817,1.9804,1.9802,1.9775,1.9763,1.9754,1.9726,1.9717,1.97,1.9681,1.9667,1.9642,1.9619,1.9614,1.9597,1.9597,1.9592,1.9578,1.9563,1.9581,1.9584,1.9586,1.956,1.9559,1.9559,1.9558,0,0,1.9854,1.9814,1.9813,1.9801,1.9771,1.976,1.9751,1.973,1.9722,1.9702,1.9693,1.967,1.9657,1.9642,1.9623,1.9619,1.9632,1.9606,1.9605,1.9612,1.9631,1.9642,1.9645,1.962,1.962,1.962,1.9633,0,1.9868,1.985,1.9827,1.9817,1.9805,1.9778,1.977,1.975,1.9732,1.9719,1.9699,1.9683,1.9667,1.9658,1.9654,1.9632,1.9635,1.963,1.9611,1.9611,1.9619,1.9646,1.9658,1.9672,1.9635,1.9635,1.9635,0,1.9881,1.9865,1.9854,1.9826,1.982,1.9813,1.9792,1.978,1.9757,1.9744,1.9729,1.9709,1.9697,1.9683,1.9666,1.9663,1.9654,1.9642,1.9642,1.9639,1.9624,1.9645,1.9675,1.9678,1.9637,1.9637,1.9637,0,1.9911,1.9885,1.9876,1.9866,1.9833,1.9828,1.9814,1.9791,1.978,1.9762,1.9754,1.9734,1.9723,1.9708,1.9683,1.9675,1.9669,1.9652,1.9658,1.9658,1.9658,1.9658,1.9688,1.9651,1.9651,1.9651,1.9651,0,1.9929,1.9924,1.9889,1.9883,1.9876,1.9849,1.9843,1.9826,1.9806,1.9796,1.9771,1.9762,1.9729,1.9716,1.9696,1.9685,1.968,1.9669,1.9664,1.9672,1.9673,1.9666,1.9664,1.9652,1.9651,1.9651,1.9651,0,1.9961,1.9937,1.9925,1.9895,1.9888,1.9884,1.9858,1.9851,1.9832,1.982,1.9816,1.9786,1.9769,1.9743,1.9718,1.9704,1.9698,1.9688,1.9706,1.9703,1.971,1.971,1.9736,1.9738,1.97,1.97,1.9701,0,1.9974,1.997,1.994,1.9932,1.9919,1.9907,1.9896,1.9869,1.9859,1.9833,1.983,1.9812,1.9796,1.9771,1.9746,1.9727,1.9718,1.9728,1.9715,1.9723,1.9719,1.972,1.9719,1.9731,1.9732,1.9732,1.9733,0,2.0001,1.999,1.9976,1.9958,1.9947,1.9931,1.9914,1.9909,1.9878,1.9868,1.9852,1.984,1.9816,1.9798,1.9776,1.976,1.9742,1.9737,1.9738,1.9746,1.9756,1.9751,1.9715,1.9737,1.9736,1.9736,1.9736,1.9736,2.0024,2.0019,1.9998,1.9984,1.9969,1.9954,1.9946,1.9927,1.9914,1.9893,1.9877,1.9862,1.984,1.9808,1.9794,1.9781,1.9773,1.9773,1.9773,1.9774,1.9777,1.9758,1.9777,1.9777,1.9777,1.9776,1.9776,0,2.005,2.0035,2.0022,2.0001,1.9989,1.9974,1.9955,1.9946,1.9934,1.9915,1.99,1.9882,1.9865,1.984,1.9821,1.9816,1.9807,1.9812,1.9812,1.9809,1.9785,1.9787,1.9819,1.9819,1.9819,1.9819,1.9819,1.9819,2.0062,2.0054,2.004,2.0024,2.0009,1.9995,1.9985,1.9972,1.9957,1.9938,1.9924,1.9908,1.9887,1.9866,1.985,1.9843,1.9837,1.9845,1.9835,1.9814,1.981,1.9806,1.9808,1.9844,1.9844,1.986,1.986,1.986]}]]